Weather History for PAGS - June, 2013

Change the Weather History Date:

Sunday, June 23, 2013

  Actual Average Record
Temperature  
Mean Temperature 61 °F -  
Max Temperature 69 °F 61 °F 82 °F (2012)
Min Temperature 53 °F 45 °F 33 °F (2000)
Degree Days  
Heating Degree Days 4    
Growing Degree Days 11 (Base 50)    
Moisture  
Dew Point 52 °F    
Average Humidity 78    
Maximum Humidity 100    
Minimum Humidity 49    
Precipitation  
Precipitation 0.00 in - - ()
Sea Level Pressure  
Sea Level Pressure 29.77 in    
Wind  
Wind Speed 3 mph (West)    
Max Wind Speed 9 mph    
Max Gust Speed -    
Visibility 10 miles    
Events      
Averages and records for this station are not official NWS values.
T = Trace of Precipitation, MM = Missing Value Source: NWS Daily Summary

Daily Weather History Graph

Daily Weather History Graph

Search for Another Location

Airport or City:

Trip Planner

Search our weather history database for the weather conditions in past years. The results will help you decide how hot, cold, wet, or windy it might be!

Date:

Astronomy

Jun. 23, 2013 Rise Set
Actual Time 3:55 AM AKDT 10:14 PM AKDT
Civil Twilight 2:36 AM AKDT 11:33 PM AKDT
Nautical Twilight Sun does not rise Sun does not rise
Astronomical Twilight Sun does not rise Sun does not rise
Moon 10:03 PM AKDT (6/23) 4:44 AM AKDT (6/23)
Length of Visible Light 20h 57m
Length of Day
18h 18m
Full, 100% of the Moon is Illuminated
Jun 23
Full
Jun 29
Last Quarter
Jul 7
New
Jul 15
First Quarter
Jul 22
Full

Hourly Weather History & Observations

Time (AKDT) Temp. Dew Point Humidity Pressure Visibility Wind Dir Wind Speed Gust Speed Precip Events Conditions
12:16 AM 53.6 °F 51.8 °F 94% 29.92 in 6.0 mi Calm Calm - N/A   Overcast
12:36 AM 53.6 °F 51.8 °F 94% 29.92 in 6.0 mi Calm Calm - N/A   Overcast
12:56 AM 53.6 °F 51.8 °F 94% 29.91 in 9.0 mi Calm Calm - N/A   Overcast
1:16 AM 53.6 °F 51.8 °F 94% 29.91 in 9.0 mi SW 3.5 mph - N/A   Overcast
1:36 AM 53.6 °F 51.8 °F 94% 29.90 in 10.0 mi WSW 3.5 mph - N/A   Overcast
1:56 AM 53.6 °F 51.8 °F 94% 29.90 in 10.0 mi Calm Calm - N/A   Overcast
2:16 AM 53.6 °F 51.8 °F 94% 29.89 in 10.0 mi Calm Calm - N/A   Overcast
2:36 AM 53.6 °F 51.8 °F 94% 29.89 in 8.0 mi Calm Calm - N/A   Overcast
2:56 AM 53.6 °F 51.8 °F 94% 29.89 in 10.0 mi Calm Calm - N/A   Overcast
3:16 AM 53.6 °F 51.8 °F 94% 29.88 in 10.0 mi Calm Calm - N/A   Overcast
3:36 AM 53.6 °F 51.8 °F 94% 29.88 in 10.0 mi Calm Calm - N/A   Overcast
3:56 AM 53.6 °F 51.8 °F 94% 29.87 in 10.0 mi Calm Calm - N/A   Overcast
4:16 AM 53.6 °F 51.8 °F 94% 29.87 in 10.0 mi Calm Calm - N/A   Overcast
4:36 AM 53.6 °F 51.8 °F 94% 29.87 in 10.0 mi Calm Calm - N/A   Overcast
4:56 AM 53.6 °F 51.8 °F 94% 29.86 in 10.0 mi Calm Calm - N/A   Overcast
5:16 AM 53.6 °F 51.8 °F 94% 29.86 in 10.0 mi Calm Calm - N/A   Overcast
5:36 AM 53.6 °F 51.8 °F 94% 29.86 in 10.0 mi WSW 3.5 mph - N/A   Overcast
5:56 AM 53.6 °F 51.8 °F 94% 29.86 in 10.0 mi Calm Calm - N/A   Overcast
6:16 AM 53.6 °F 51.8 °F 94% 29.85 in 10.0 mi West 3.5 mph - N/A   Overcast
6:36 AM 53.6 °F 51.8 °F 94% 29.84 in 10.0 mi NW 3.5 mph - N/A   Overcast
6:56 AM 53.6 °F 53.6 °F 100% 29.84 in 9.0 mi NW 3.5 mph - N/A   Overcast
7:16 AM 55.4 °F 53.6 °F 94% 29.84 in 10.0 mi WNW 3.5 mph - N/A   Overcast
7:36 AM 55.4 °F 53.6 °F 94% 29.83 in 10.0 mi WNW 3.5 mph - N/A   Overcast
7:56 AM 55.4 °F 53.6 °F 94% 29.83 in 10.0 mi West 3.5 mph - N/A   Overcast
8:16 AM 55.4 °F 53.6 °F 94% 29.83 in 10.0 mi NNW 4.6 mph - N/A   Overcast
8:36 AM 55.4 °F 53.6 °F 94% 29.82 in 10.0 mi NW 4.6 mph - N/A   Overcast
8:56 AM 55.4 °F 53.6 °F 94% 29.81 in 10.0 mi NW 6.9 mph - N/A   Overcast
9:16 AM 55.4 °F 53.6 °F 94% 29.81 in 10.0 mi NNW 4.6 mph - N/A   Overcast
9:36 AM 57.2 °F 53.6 °F 88% 29.81 in 10.0 mi WNW 4.6 mph - N/A   Overcast
9:56 AM 57.2 °F 53.6 °F 88% 29.81 in 10.0 mi NW 4.6 mph - N/A   Overcast
10:16 AM 57.2 °F 53.6 °F 88% 29.80 in 10.0 mi NNW 5.8 mph - N/A   Overcast
10:36 AM 57.2 °F 53.6 °F 88% 29.80 in 10.0 mi NNW 8.1 mph - N/A   Overcast
10:56 AM 57.2 °F 53.6 °F 88% 29.80 in 10.0 mi North 4.6 mph - N/A   Overcast
11:16 AM 59.0 °F 53.6 °F 82% 29.79 in 10.0 mi NW 3.5 mph - N/A   Overcast
11:36 AM 60.8 °F 53.6 °F 77% 29.78 in 10.0 mi NNW 6.9 mph - N/A   Overcast
11:56 AM 60.8 °F 55.4 °F 82% 29.78 in 10.0 mi West 3.5 mph - N/A   Overcast
12:16 PM 62.6 °F 53.6 °F 72% 29.77 in 10.0 mi Calm Calm - N/A   Overcast
12:36 PM 62.6 °F 55.4 °F 77% 29.76 in 10.0 mi WNW 3.5 mph - N/A   Mostly Cloudy
12:56 PM 62.6 °F 53.6 °F 72% 29.76 in 10.0 mi WNW 3.5 mph - N/A   Overcast
1:16 PM 64.4 °F 55.4 °F 73% 29.76 in 10.0 mi SW 9.2 mph - N/A   Mostly Cloudy
1:36 PM 62.6 °F 53.6 °F 72% 29.75 in 10.0 mi SSW 8.1 mph - N/A   Mostly Cloudy
1:56 PM 64.4 °F 55.4 °F 73% 29.75 in 10.0 mi SW 5.8 mph - N/A   Scattered Clouds
2:16 PM 64.4 °F 55.4 °F 73% 29.75 in 10.0 mi South 5.8 mph - N/A   Clear
2:36 PM 64.4 °F 55.4 °F 73% 29.74 in 10.0 mi SSW 6.9 mph - N/A   Partly Cloudy
2:56 PM 66.2 °F 55.4 °F 68% 29.74 in 10.0 mi SW 6.9 mph - N/A   Partly Cloudy
3:16 PM 66.2 °F 55.4 °F 68% 29.73 in 10.0 mi SW 6.9 mph - N/A   Clear
3:36 PM 66.2 °F 55.4 °F 68% 29.72 in 10.0 mi SSW 8.1 mph - N/A   Clear
3:56 PM 68.0 °F 55.4 °F 64% 29.72 in 10.0 mi SW 8.1 mph - N/A   Mostly Cloudy
4:16 PM 66.2 °F 53.6 °F 64% 29.71 in 10.0 mi South 8.1 mph - N/A   Mostly Cloudy
4:36 PM 66.2 °F 53.6 °F 64% 29.70 in 10.0 mi SSW 8.1 mph - N/A   Mostly Cloudy
4:56 PM 68.0 °F 53.6 °F 60% 29.70 in 10.0 mi SSW 6.9 mph - N/A   Scattered Clouds
5:16 PM 68.0 °F 53.6 °F 60% 29.69 in 10.0 mi SSW 6.9 mph - N/A   Partly Cloudy
5:36 PM 68.0 °F 53.6 °F 60% 29.69 in 10.0 mi SSW 5.8 mph - N/A   Clear
5:56 PM 68.0 °F 53.6 °F 60% 29.68 in 10.0 mi SSW 8.1 mph - N/A   Scattered Clouds
6:16 PM 66.2 °F 51.8 °F 60% 29.67 in 10.0 mi SSW 6.9 mph - N/A   Mostly Cloudy
6:36 PM 68.0 °F 53.6 °F 60% 29.67 in 10.0 mi SSW 5.8 mph - N/A   Partly Cloudy
6:56 PM 68.0 °F 53.6 °F 60% 29.66 in 10.0 mi SW 3.5 mph - N/A   Clear
7:16 PM 69.8 °F 51.8 °F 53% 29.66 in 10.0 mi NW 5.8 mph - N/A   Clear
7:36 PM 68.0 °F 51.8 °F 56% 29.65 in 10.0 mi NW 8.1 mph - N/A   Clear
7:56 PM 68.0 °F 48.2 °F 49% 29.65 in 10.0 mi NW 9.2 mph - N/A   Clear
8:16 PM 66.2 °F 50.0 °F 56% 29.65 in 10.0 mi NW 5.8 mph - N/A   Clear
8:36 PM 66.2 °F 48.2 °F 52% 29.65 in 10.0 mi NW 5.8 mph - N/A   Clear
8:56 PM 64.4 °F 48.2 °F 56% 29.65 in 10.0 mi NW 8.1 mph - N/A   Clear
9:16 PM 64.4 °F 48.2 °F 56% 29.65 in 10.0 mi NNW 5.8 mph - N/A   Clear
9:36 PM 62.6 °F 48.2 °F 59% 29.65 in 10.0 mi NNW 4.6 mph - N/A   Clear
9:56 PM 60.8 °F 48.2 °F 63% 29.65 in 10.0 mi NW 5.8 mph - N/A   Clear
10:16 PM 60.8 °F 48.2 °F 63% 29.65 in 10.0 mi NW 4.6 mph - N/A   Clear
10:36 PM 60.8 °F 48.2 °F 63% 29.65 in 10.0 mi NW 5.8 mph - N/A   Clear
10:56 PM 59.0 °F 48.2 °F 67% 29.64 in 10.0 mi NNW 5.8 mph - N/A   Clear
11:16 PM 57.2 °F 48.2 °F 72% 29.64 in 10.0 mi NNW 3.5 mph - N/A   Clear
11:36 PM 57.2 °F 48.2 °F 72% 29.64 in 10.0 mi Calm Calm - N/A   Clear
11:56 PM 57.2 °F 48.2 °F 72% 29.64 in 10.0 mi Calm Calm - N/A   Clear